This is the latest recevied weather packets stored in our database for station/object YO8CLN-10. If no packets are shown the sender has not sent any weather packets the latest 1 day(s).
| Time | Temp. | Humidity | Pressure | Rain* | Wind** | Luminosity | Snow |
|---|---|---|---|---|---|---|---|
| 1777992017 | 25.56° C | 27% | 1111 hPa | 0 mm | 0 m/s | - | - |
| 1777991417 | 25.56° C | 27% | 1111 hPa | 0 mm | 1.79 m/s, 292° | - | - |
| 1777990816 | 25.56° C | 27% | 1111 hPa | 0 mm | 4.47 m/s, 202° | - | - |
| 1777990215 | 26.11° C | 27% | 1111 hPa | 0 mm | 3.58 m/s, 202° | - | - |
| 1777989615 | 26.11° C | 27% | 1111 hPa | 0 mm | 3.13 m/s, 202° | - | - |
| 1777989014 | 26.11° C | 27% | 1111 hPa | 0 mm | 0.89 m/s, 135° | - | - |
| 1777988414 | 25.56° C | 26% | 1111 hPa | 0 mm | 0.45 m/s, 292° | - | - |
| 1777987813 | 25.56° C | 26% | 1111 hPa | 0 mm | 0.89 m/s, 22° | - | - |
| 1777987213 | 25.56° C | 27% | 1111 hPa | 0 mm | 2.68 m/s, 202° | - | - |
| 1777986612 | 25.56° C | 26% | 1111 hPa | 0 mm | 1.34 m/s, 292° | - | - |
| 1777986011 | 25.56° C | 27% | 1111 hPa | 0 mm | 0 m/s | - | - |
| 1777985411 | 25.56° C | 24% | 1111 hPa | 0 mm | 0 m/s | - | - |
| 1777984810 | 25.56° C | 25% | 1111 hPa | 0 mm | 0.89 m/s, 315° | - | - |
| 1777984210 | 25° C | 25% | 1111 hPa | 0 mm | 1.34 m/s, 292° | - | - |
| 1777983609 | 25° C | 22% | 1111 hPa | 0 mm | 0 m/s | - | - |
| 1777983015 | 25.56° C | 20% | 1111 hPa | 0 mm | 0 m/s | - | - |
| 1777982408 | 26.11° C | 20% | 1111 hPa | 0 mm | 2.68 m/s, 337° | - | - |
| 1777981807 | 26.11° C | 21% | 1111 hPa | 0 mm | 1.34 m/s, 45° | - | - |
| 1777981207 | 26.11° C | 23% | 1111 hPa | 0 mm | 0.45 m/s, 0° | - | - |
| 1777980606 | 26.11° C | 23% | 1111 hPa | 0 mm | 0.89 m/s, 315° | - | - |
| 1777980006 | 25.56° C | 24% | 1111 hPa | 0 mm | 0.45 m/s, 67° | - | - |
| 1777979405 | 25.56° C | 23% | 1111 hPa | 0 mm | 1.34 m/s, 112° | - | - |
| 1777978804 | 25.56° C | 24% | 1111 hPa | 0 mm | 0.89 m/s, 112° | - | - |
| 1777978204 | 25.56° C | 27% | 1111 hPa | 0 mm | 1.34 m/s, 45° | - | - |
| 1777977603 | 25.56° C | 27% | 1111 hPa | 0 mm | 0 m/s | - | - |
* Rain latest hour (hover to see other rain measurements)
** Current wind speed in m/s (hover to see current wind gust speed)